EW1071 Weather Reports


Display with metric or nautical units.
time (UTC)temp
F
wind
direction
speed
MPH
gust
MPH
rain 1hr
in
rain 24hr
in
rain mn
in
humidity
%
barometer
mb
20260903011518 50 73 0.0 0.0 0.00 0.00 0.00 86 1014.0
20260903010014 51 73 0.0 0.0 0.00 0.00 0.00 84 1013.9
20260903004511 53 73 0.0 2.0 0.00 0.00 0.00 83 1013.9
20260903003011 53 73 1.0 6.0 0.00 0.00 0.00 84 1013.8
20260903001509 53 74 3.0 10.0 0.00 0.00 0.00 84 1013.7
20260903000008 53 76 3.0 11.0 0.00 0.00 0.00 85 1013.8
20260902234506 53 85 4.0 14.0 0.00 0.00 0.00 86 1013.7
20260902233005 53 77 7.0 16.0 0.00 0.00 0.00 86 1013.8
20260902231503 53 82 7.0 14.0 0.00 0.00 0.00 85 1014.0
20260902230104 53 75 8.0 16.0 0.00 0.00 0.00 85 1014.1
20260902224614 54 91 6.0 18.0 0.00 0.00 0.00 85 1014.1
20260902223057 54 76 9.0 18.0 0.00 0.00 0.00 84 1014.5
20260902221556 54 106 7.0 16.0 0.00 0.00 0.00 84 1014.7
20260902220057 54 82 9.0 22.0 0.00 0.00 0.00 85 1014.7
20260902214554 54 81 9.0 18.0 0.00 0.00 0.00 84 1015.1
20260902213049 55 88 11.0 22.0 0.00 0.00 0.00 84 1015.2
20260902211646 55 88 9.0 25.0 0.00 0.00 0.00 84 1015.2
20260902210042 55 78 8.0 18.0 0.00 0.00 0.00 83 1015.7
20260902204542 55 118 10.0 25.0 0.00 0.00 0.00 82 1015.6
20260902203041 55 108 9.0 21.0 0.00 0.00 0.00 82 1016.0
20260902201551 56 115 11.0 24.0 0.00 0.00 0.00 81 1016.2
20260902200044 56 122 10.0 26.0 0.00 0.00 0.00 80 1015.8
20260902194550 56 126 8.0 23.0 0.00 0.00 0.00 80 1015.8
20260902193038 56 118 11.0 23.0 0.00 0.00 0.00 79 1016.0
20260902191538 57 105 11.0 23.0 0.00 0.00 0.00 78 1015.8
20260902190037 57 111 10.0 25.0 0.00 0.00 0.00 77 1015.9
20260902184541 58 96 10.0 20.0 0.00 0.00 0.00 77 1015.9
20260902183036 58 83 11.0 21.0 0.00 0.00 0.00 76 1015.8
20260902181539 58 113 11.0 19.0 0.00 0.00 0.00 75 1015.8
20260902180037 59 117 8.0 18.0 0.00 0.00 0.00 74 1015.7
20260902174534 59 110 7.0 20.0 0.00 0.00 0.00 72 1015.6
20260902173034 60 107 8.0 23.0 0.00 0.00 0.00 71 1015.3
20260902171534 60 109 9.0 16.0 0.00 0.00 0.00 72 1015.2
20260902170032 60 113 8.0 16.0 0.00 0.00 0.00 71 1015.0
20260902164533 61 78 3.0 13.0 0.00 0.00 0.00 71 1014.8
20260902163032 61 109 7.0 15.0 0.00 0.00 0.00 72 1014.6
20260902161538 61 113 1.0 16.0 0.00 0.00 0.00 71 1014.5
20260902160030 62 109 6.0 16.0 0.00 0.00 0.00 71 1014.6
20260902154529 63 103 4.0 12.0 0.00 0.00 0.00 69 1014.4
20260902153029 63 101 7.0 12.0 0.00 0.00 0.00 67 1014.4
20260902151530 65 98 0.0 10.0 0.00 0.00 0.00 65 1014.3
20260902150128 66 113 4.0 11.0 0.00 0.00 0.00 62 1014.3
20260902144527 67 118 2.0 6.0 0.00 0.00 0.00 60 1014.3
20260902143026 68 115 2.0 10.0 0.00 0.00 0.00 58 1014.4
20260902141534 68 92 0.0 7.0 0.00 0.00 0.00 55 1014.4
20260902140026 69 99 0.0 10.0 0.00 0.00 0.00 55 1014.3
20260902134535 69 99 0.0 5.0 0.00 0.00 0.00 53 1014.2
20260902133025 69 172 0.0 4.0 0.00 0.00 0.00 53 1014.2
20260902131528 70 120 0.0 6.0 0.00 0.00 0.00 52 1014.2
20260902130022 70 165 0.0 5.0 0.00 0.00 0.00 53 1014.4
20260902124526 70 118 1.0 10.0 0.00 0.00 0.00 51 1014.6
20260902123024 70 196 0.0 8.0 0.00 0.00 0.00 53 1014.7
20260902121519 70 116 0.0 6.0 0.00 0.00 0.00 53 1014.8
20260902120017 70 185 1.0 11.0 0.00 0.00 0.00 54 1015.0
20260902114517 70 112 0.0 7.0 0.00 0.00 0.00 55 1015.3
20260902113015 69 111 0.0 12.0 0.00 0.00 0.00 57 1015.2
20260902111514 69 161 0.0 12.0 0.00 0.00 0.00 57 1015.4
20260902110026 68 168 1.0 15.0 0.00 0.00 0.00 57 1015.6
20260902104532 68 117 1.0 10.0 0.00 0.00 0.00 55 1015.8
20260902103013 69 163 0.0 10.0 0.00 0.00 0.00 56 1016.1
20260902101511 69 146 0.0 9.0 0.00 0.00 0.00 53 1016.3
20260902100011 70 188 0.0 9.0 0.00 0.00 0.00 53 1016.4
20260902094512 69 215 0.0 7.0 0.00 0.00 0.00 56 1016.9
20260902093009 69 180 2.0 10.0 0.00 0.00 0.00 57 1017.1
20260902091511 69 187 1.0 9.0 0.00 0.00 0.00 56 1017.4
20260902090006 68 177 0.0 8.0 0.00 0.00 0.00 57 1017.7
20260902084503 68 174 0.0 10.0 0.00 0.00 0.00 59 1017.8
20260902083005 67 181 0.0 10.0 0.00 0.00 0.00 59 1017.9
20260902081618 67 233 1.0 9.0 0.00 0.00 0.00 63 1018.0
20260902080107 67 194 2.0 10.0 0.00 0.00 0.00 62 1018.1
20260902074556 66 245 0.0 0.0 0.00 0.00 0.00 65 1018.3
20260902073054 64 246 0.0 0.0 0.00 0.00 0.00 68 1018.4
20260902071601 65 284 0.0 0.0 0.00 0.00 0.00 66 1018.6
20260902070050 64 303 0.0 0.0 0.00 0.00 0.00 68 1018.7
20260902064549 61 304 0.0 0.0 0.00 0.00 0.00 73 1018.9
20260902063106 59 301 0.0 0.0 0.00 0.00 0.00 80 1019.1
20260902061542 58 301 0.0 0.0 0.00 0.00 0.00 83 1019.2
20260902060046 57 301 0.0 0.0 0.00 0.00 0.00 83 1019.2
20260902054536 56 301 0.0 0.0 0.00 0.00 0.00 87 1019.0
20260902053032 54 301 0.0 0.0 0.00 0.00 0.00 89 1018.9
20260902051528 53 301 0.0 0.0 0.00 0.00 0.00 90 1018.7
20260902050027 53 301 0.0 0.0 0.00 0.00 0.00 92 1018.6
20260902044538 52 301 0.0 6.0 0.00 0.00 0.00 91 1018.4
20260902043023 51 293 0.0 4.0 0.00 0.00 0.00 89 1018.1
20260902041522 51 292 3.0 10.0 0.00 0.00 0.00 89 1017.9
20260902040019 51 61 1.0 7.0 0.00 0.00 0.00 89 1017.7
20260902034517 51 64 0.0 0.0 0.00 0.00 0.00 88 1017.4
20260902033014 51 64 0.0 0.0 0.00 0.00 0.00 89 1017.0
20260902031519 51 64 0.0 0.0 0.00 0.00 0.00 87 1016.9
20260902030011 52 64 0.0 0.0 0.00 0.00 0.00 86 1016.8
20260902024507 53 64 0.0 1.0 0.00 0.00 0.00 85 1016.8
20260902023005 53 63 2.0 8.0 0.00 0.00 0.00 85 1016.8
20260902021504 53 85 1.0 12.0 0.00 0.00 0.00 86 1016.5
20260902020002 54 92 3.0 10.0 0.00 0.00 0.00 85 1016.4
20260902014503 54 98 1.0 11.0 0.00 0.00 0.00 84 1016.3
20260902013115 54 78 5.0 15.0 0.00 0.00 0.00 84 1016.0